Regional Weather Roundup
Issued by NWS

Home | Current Version | Previous Version | Graphics & Text | Print | Product List | Glossary On
Versions: 1 2 3 4 5 6 7 8 9 10 11 12 13 14 15 16 17 18 19 20 21 22 23 24 25 26 27 28 29 30 31 32 33 34 35 36 37 38 39 40 41 42 43 44 45 46 47 48 49 50
000
ASUS43 KDTX 221510
RWRMI
MICHIGAN HOURLY REGIONAL WEATHER ROUNDUP
NATIONAL WEATHER SERVICE DETROIT/PONTIAC MI
1100 AM EDT FRI AUG 22 2014

NOTE: "FAIR" INDICATES FEW OR NO CLOUDS BELOW 12,000 FEET WITH NO
SIGNIFICANT WEATHER AND/OR OBSTRUCTION TO VISIBILITY.

MIZ047>049-052>055-059>063-066>070-074>076-081>083-221600-
SOUTHEAST LOWER MICHIGAN

CITY           SKY/WX    TMP DP  RH WIND       PRES   REMARKS
ADRIAN         CLOUDY    76  71  85 SW7       29.99S
ALMA           CLOUDY    75  69  82 SE6       30.00R
ANN ARBOR      CLOUDY    74  69  85 E3        29.99R HAZE
BAD AXE        CLOUDY    64  64 100 CALM      30.03S
DETROIT CITY   SUNNY     77  67  71 E6        29.98F
DETROIT        CLOUDY    75  69  81 CALM      29.99S
FLINT          SUNNY     79  65  62 CALM      29.99S
GROSSE ILE     CLOUDY    73  70  88 CALM      29.97S FOG
HILLSDALE      CLOUDY    72  72 100 SW5       30.01R
HOWELL         CLOUDY    73  69  88 E5        30.00R FOG

CITY           SKY/WX    TMP DP  RH WIND       PRES   REMARKS
JACKSON        CLOUDY    75  70  84 SE5       29.99R
LAMBERTVILLE   CLOUDY    79  70  73 S3        29.98S
LANSING        CLOUDY    74  70  87 SE7       30.00R
LAPEER         NOT AVBL
MASON          CLOUDY    71  70  98 SE5       29.99S FOG
MONROE         PTSUNNY   79  72  78 CALM      29.96S
MT. CLEMENS    MOSUNNY   74  64  70 E5        29.98F
PONTIAC        PTSUNNY   74  65  73 SE6       29.99S
PORT HOPE        N/A     65  62  90 E6        30.01F
PORT HURON     CLOUDY    72  66  83 N3        30.00S
TRI CITIES     PTSUNNY   75  65  70 NE7       30.01S
YPSILANTI      CLOUDY    77  69  76 SE3       29.99S HAZE
$$
MIZ043>046-050>051-056>058-064>065-071>073-077>080-221600-
SOUTHWEST LOWER MICHIGAN

CITY           SKY/WX    TMP DP  RH WIND       PRES   REMARKS
BATTLE CREEK   CLOUDY    73  69  87 S7        30.00R
BENTON HARBOR  CLOUDY    76  71  85 S5        29.96S
BIG RAPIDS     CLOUDY    71  67  89 SE6       30.00R
COLDWATER      CLOUDY    75  72  91 SW6       29.99S
HOLLAND        CLOUDY    75  71  87 SE5       29.98R
GRAND RAPIDS   CLOUDY    75  73  93 E7        29.98S
KALAMAZOO      CLOUDY    73  70  90 S5        29.99R FOG
MARSHALL       CLOUDY    72  69  91 MISG      29.99R
MUSKEGON       CLOUDY    77  70  79 SE6       29.97R
$$
MIZ016>042-221600-
NORTHERN LOWER MICHIGAN

CITY           SKY/WX    TMP DP  RH WIND       PRES   REMARKS
ALPENA         CLOUDY    68  64  87 CALM      30.03S
BEAVER ISLAND  CLOUDY    69  67  93 E6        30.00S
BELLAIRE       CLOUDY    73  64  75 CALM      29.99F
CADILLAC       CLOUDY    69  64  83 SE6       30.02S
CHARLEVOIX     CLOUDY    71  67  89 E5        30.03S
FRANKFORT      CLOUDY    73  66  80 SE5       29.98S
GAYLORD        CLOUDY    67  62  84 S6        30.04R
GRAYLING       CLOUDY    74  67  79 S5        30.04R
HARBOR SPRINGS CLOUDY    69  65  85 E7        30.01S
HOUGHTON LAKE  CLOUDY    69  63  81 SE7       30.03F
MANISTEE       PTSUNNY   70  66  88 E5        29.99S
OSCODA         CLOUDY    66  63  91 SE6       30.03R
PELLSTON       CLOUDY    67  65  93 SE3       30.02S
TRAVERSE CITY  CLOUDY    73  65  75 SE3       29.98S
$$
MIZ007>008-015-221600-
EASTERN UPPER MICHIGAN

CITY           SKY/WX    TMP DP  RH WIND       PRES   REMARKS
KINROSS        MOSUNNY   72  64  78 SE9       30.02S
MACKINAC ISLAN CLOUDY    66  65  99 SE3       30.02R
NEWBERRY       CLOUDY    63  62  96 S5        30.01S
S. S. MARIE    CLOUDY    67  64  90 SE5       30.02S
$$
MIZ004>006-011>014-085-221600-
CENTRAL UPPER MICHIGAN

CITY           SKY/WX    TMP DP  RH WIND       PRES   REMARKS
MANISTIQUE     CLOUDY    69  65  88 E6        29.99S
ESCANABA       CLOUDY    70  63  78 E6        29.98S
MENOMINEE      CLOUDY    70  64  83 E8        29.95S
SAWYER-GWINN   PTSUNNY   72  63  73 SE6       29.99S
$$
MIZ001>003-009>011-084-221600-
WESTERN UPPER MICHIGAN

CITY           SKY/WX    TMP DP  RH WIND       PRES   REMARKS
IRON MOUNTAIN  CLOUDY    65  63  93 SE5       29.98R FOG
HOUGHTON       CLOUDY    66  60  81 E10       29.98S
COPPER HARBOR    N/A     63  59  87 CALM      29.98S
IRONWOOD       CLOUDY    68  66  94 CALM      29.93S
$$

ABBREVIATIONS USED IN REMARKS
   TC - TEMPERATURE IN CELSIUS
  WCI - WIND CHILL INDEX
   HX - HEAT INDEX
  VSB - VISIBILITY




USA.gov is the U.S. government's official web portal to all federal, state and local government web resources and services.